PGT251 LQTZ-LTFJ

Flight info

Callsign PGT251
Flight time 0h 55m
Altitude 35000
Route SOMUN DCT SOSEK DCT NISVA DCT BUFRA DCT ADORU UM19 IBODU
Aircraft A21N/M-SDE2E3FGHIJ1RWXY/LB1

Departure

Time 2026-04-24 01:26
Airport Tuzla International Airport (LQTZ)

Arrival

Time 2026-04-24 02:21
Airport Istanbul Sabiha Gökçen International Airport (LTFJ)
Time Latitude Longitude Altitude Speed Heading
2026-04-24 01:13 44.46340 18.70985 766 ft 0 kts 95°
2026-04-24 01:22 44.46340 18.70986 766 ft 0 kts 95°
2026-04-24 01:23 44.46336 18.71009 766 ft 3 kts 134°
2026-04-24 01:23 44.46289 18.70996 765 ft 10 kts 216°
2026-04-24 01:23 44.46219 18.70947 763 ft 12 kts 195°
2026-04-24 01:23 44.46128 18.70927 761 ft 14 kts 187°
2026-04-24 01:24 44.46026 18.70932 759 ft 13 kts 164°
2026-04-24 01:24 44.45983 18.71001 759 ft 8 kts 97°
2026-04-24 01:24 44.45983 18.71004 759 ft 0 kts 96°
2026-04-24 01:25 44.45982 18.71008 759 ft 8 kts 96°
2026-04-24 01:25 44.45946 18.71478 767 ft 86 kts 97°
2026-04-24 01:25 44.45855 18.72610 779 ft 148 kts 96°
2026-04-24 01:25 44.45719 18.74255 993 ft 179 kts 95°
2026-04-24 01:26 44.45584 18.75981 1688 ft 180 kts 93°
2026-04-24 01:26 44.45441 18.77709 2430 ft 182 kts 93°
2026-04-24 01:26 44.45306 18.79445 3182 ft 182 kts 93°
2026-04-24 01:26 44.45169 18.81196 3804 ft 188 kts 93°
2026-04-24 01:27 44.45007 18.83043 4406 ft 191 kts 92°
2026-04-24 01:27 44.44685 18.84855 4942 ft 203 kts 118°
2026-04-24 01:27 44.43607 18.86123 5478 ft 213 kts 159°
2026-04-24 01:27 44.42152 18.86269 6048 ft 212 kts 198°
2026-04-24 01:28 44.40927 18.85246 6490 ft 209 kts 235°
2026-04-24 01:28 44.40295 18.83367 6627 ft 222 kts 275°
2026-04-24 01:28 44.40666 18.81321 6978 ft 225 kts 310°
2026-04-24 01:28 44.41723 18.79727 7665 ft 226 kts 319°
2026-04-24 01:29 44.42806 18.78124 8377 ft 231 kts 317°
2026-04-24 01:29 44.43904 18.76420 8962 ft 242 kts 316°
2026-04-24 01:29 44.45041 18.74709 9677 ft 243 kts 324°
2026-04-24 01:29 44.46532 18.73716 10368 ft 240 kts 354°
2026-04-24 01:30 44.48185 18.73764 11150 ft 239 kts
2026-04-24 01:30 44.49829 18.73804 11899 ft 240 kts 358°
2026-04-24 01:30 44.51510 18.73698 12454 ft 248 kts 359°
2026-04-24 01:30 44.53249 18.73658 13089 ft 252 kts
2026-04-24 01:31 44.54997 18.73648 13756 ft 255 kts
2026-04-24 01:31 44.56733 18.73985 14331 ft 260 kts 21°
2026-04-24 01:31 44.58233 18.75455 14897 ft 269 kts 46°
2026-04-24 01:31 44.59152 18.77788 15327 ft 288 kts 71°
2026-04-24 01:32 44.59323 18.80684 15652 ft 309 kts 85°
2026-04-24 01:32 44.59333 18.83699 16203 ft 316 kts 85°
2026-04-24 01:32 44.59362 18.86787 16781 ft 320 kts 84°
2026-04-24 01:32 44.59398 18.89913 17386 ft 323 kts 84°
2026-04-24 01:33 44.59435 18.93032 17928 ft 326 kts 84°
2026-04-24 01:33 44.59475 18.96257 18460 ft 330 kts 84°
2026-04-24 01:33 44.59513 18.99431 19029 ft 333 kts 84°
2026-04-24 01:33 44.59549 19.02684 19624 ft 335 kts 84°
2026-04-24 01:34 44.59587 19.05949 20228 ft 337 kts 84°
2026-04-24 01:34 44.59475 19.09230 20779 ft 344 kts 95°
2026-04-24 01:34 44.58787 19.12486 21305 ft 354 kts 109°
2026-04-24 01:34 44.57601 19.15573 21548 ft 369 kts 116°
2026-04-24 01:35 44.56255 19.18687 21770 ft 382 kts 117°
2026-04-24 01:35 44.54833 19.21932 21987 ft 394 kts 117°
2026-04-24 01:35 44.53390 19.25234 22195 ft 405 kts 117°
2026-04-24 01:35 44.51905 19.28654 22401 ft 416 kts 117°
2026-04-24 01:36 44.50399 19.32132 22718 ft 423 kts 116°
2026-04-24 01:36 44.48878 19.35650 23171 ft 426 kts 117°
2026-04-24 01:36 44.47342 19.39205 23648 ft 428 kts 116°
2026-04-24 01:36 44.45809 19.42752 24102 ft 431 kts 116°
2026-04-24 01:37 44.44249 19.46361 24558 ft 433 kts 116°
2026-04-24 01:37 44.42701 19.49936 24992 ft 436 kts 116°
2026-04-24 01:37 44.41131 19.53564 25430 ft 438 kts 116°
2026-04-24 01:37 44.39546 19.57220 25860 ft 440 kts 116°
2026-04-24 01:38 44.37969 19.60851 26253 ft 442 kts 116°
2026-04-24 01:38 44.36369 19.64533 26630 ft 444 kts 116°
2026-04-24 01:38 44.34777 19.68195 26990 ft 447 kts 117°
2026-04-24 01:38 44.33150 19.71928 27353 ft 449 kts 117°
2026-04-24 01:39 44.31531 19.75635 27727 ft 450 kts 117°
2026-04-24 01:39 44.29903 19.79362 28073 ft 452 kts 117°
2026-04-24 01:39 44.28263 19.83110 28405 ft 454 kts 116°
2026-04-24 01:39 44.26620 19.86862 28720 ft 456 kts 116°
2026-04-24 01:40 44.24966 19.90633 29061 ft 457 kts 116°
2026-04-24 01:40 44.23331 19.94351 29487 ft 456 kts 116°
2026-04-24 01:40 44.21684 19.98092 29938 ft 454 kts 116°
2026-04-24 01:40 44.20029 20.01848 30376 ft 453 kts 116°
2026-04-24 01:41 44.18385 20.05577 30757 ft 452 kts 116°
2026-04-24 01:41 44.16753 20.09274 31122 ft 451 kts 116°
2026-04-24 01:41 44.15122 20.12961 31481 ft 450 kts 116°
2026-04-24 01:41 44.13490 20.16649 31807 ft 449 kts 116°
2026-04-24 01:42 44.11850 20.20344 32149 ft 448 kts 115°
2026-04-24 01:42 44.10218 20.24024 32470 ft 447 kts 115°
2026-04-24 01:42 44.08592 20.27683 32788 ft 446 kts 115°
2026-04-24 01:42 44.06985 20.31296 33102 ft 445 kts 115°
2026-04-24 01:43 44.05358 20.34945 33400 ft 444 kts 115°
2026-04-24 01:43 44.03742 20.38573 33628 ft 444 kts 115°
2026-04-24 01:43 44.02114 20.42220 33815 ft 446 kts 115°
2026-04-24 01:43 44.00477 20.45888 33999 ft 447 kts 115°
2026-04-24 01:44 43.98842 20.49541 34200 ft 447 kts 115°
2026-04-24 01:44 43.97194 20.53219 34425 ft 447 kts 115°
2026-04-24 01:44 43.95568 20.56842 34629 ft 447 kts 115°
2026-04-24 01:44 43.93916 20.60517 34763 ft 449 kts 115°
2026-04-24 01:45 43.92265 20.64187 34899 ft 450 kts 115°
2026-04-24 01:45 43.90607 20.67865 35028 ft 451 kts 115°
2026-04-24 01:45 43.88956 20.71525 35035 ft 453 kts 115°
2026-04-24 01:46 43.85612 20.78918 35048 ft 452 kts 115°
2026-04-24 01:46 43.82274 20.86286 35052 ft 452 kts 115°
2026-04-24 01:47 43.78947 20.93609 35056 ft 453 kts 115°
2026-04-24 01:47 43.75677 21.01039 35050 ft 451 kts 114°
2026-04-24 01:48 43.72518 21.08505 35052 ft 452 kts 114°
2026-04-24 01:48 43.69349 21.15960 35055 ft 451 kts 114°
2026-04-24 01:49 43.66161 21.23412 35057 ft 452 kts 114°
2026-04-24 01:49 43.62977 21.30826 35056 ft 452 kts 114°
2026-04-24 01:50 43.60088 21.37537 35054 ft 452 kts 114°
2026-04-24 01:51 42.98397 22.77955 35020 ft 451 kts 111°
2026-04-24 01:51 42.95922 22.85743 35021 ft 447 kts 105°
2026-04-24 01:52 42.94002 22.93736 35027 ft 446 kts 103°
2026-04-24 01:52 42.92091 23.01810 35021 ft 449 kts 106°
2026-04-24 01:53 42.89680 23.09648 35023 ft 451 kts 109°
2026-04-24 01:53 42.87167 23.17493 35023 ft 450 kts 109°
2026-04-24 01:54 42.84784 23.24988 35016 ft 450 kts 108°
2026-04-24 01:55 41.57247 27.03835 34993 ft 451 kts 107°
2026-04-24 01:55 41.55409 27.11771 34985 ft 448 kts 100°
2026-04-24 01:56 41.54277 27.19871 34989 ft 446 kts 94°
2026-04-24 01:56 41.53498 27.28072 34988 ft 446 kts 94°
2026-04-24 01:57 41.52722 27.36264 34986 ft 446 kts 94°
2026-04-24 01:57 41.52073 27.43034 34985 ft 446 kts 94°
2026-04-24 01:58 41.51144 27.52613 34982 ft 446 kts 94°
2026-04-24 01:58 41.50344 27.60798 34737 ft 447 kts 94°
2026-04-24 01:58 41.49941 27.64880 34385 ft 445 kts 94°
2026-04-24 01:59 41.49536 27.68976 33887 ft 445 kts 94°
2026-04-24 01:59 41.49131 27.73049 33265 ft 446 kts 94°
2026-04-24 01:59 41.48725 27.77141 32615 ft 447 kts 94°
2026-04-24 01:59 41.48319 27.81204 31950 ft 448 kts 94°
2026-04-24 02:00 41.47907 27.85313 31242 ft 450 kts 94°
2026-04-24 02:00 41.47491 27.89444 30480 ft 451 kts 94°
2026-04-24 02:00 41.47075 27.93567 29707 ft 451 kts 94°
2026-04-24 02:00 41.46655 27.97703 28954 ft 450 kts 94°
2026-04-24 02:01 41.46236 28.01830 28216 ft 448 kts 95°
2026-04-24 02:01 41.45820 28.05889 27764 ft 440 kts 94°
2026-04-24 02:01 41.45412 28.09850 27278 ft 434 kts 95°
2026-04-24 02:01 41.45005 28.13812 26793 ft 428 kts 94°
2026-04-24 02:02 41.44603 28.17705 26308 ft 423 kts 95°
2026-04-24 02:02 41.44204 28.21549 25828 ft 418 kts 94°
2026-04-24 02:02 41.43807 28.25367 25342 ft 414 kts 95°
2026-04-24 02:02 41.43416 28.29131 24857 ft 410 kts 94°
2026-04-24 02:03 41.42640 28.36541 23915 ft 403 kts 94°
2026-04-24 02:03 41.42250 28.40244 23434 ft 400 kts 94°
2026-04-24 02:03 41.41866 28.43885 22958 ft 397 kts 94°
2026-04-24 02:04 41.41486 28.47494 22467 ft 395 kts 95°
2026-04-24 02:04 41.41106 28.51069 21990 ft 393 kts 95°
2026-04-24 02:04 41.40724 28.54663 21483 ft 391 kts 95°
2026-04-24 02:04 41.40343 28.58233 20900 ft 391 kts 95°
2026-04-24 02:05 41.39957 28.61842 20268 ft 392 kts 95°
2026-04-24 02:05 41.39572 28.65423 19683 ft 391 kts 96°
2026-04-24 02:05 41.39189 28.68983 19167 ft 389 kts 96°
2026-04-24 02:05 41.38807 28.72498 18707 ft 385 kts 96°
2026-04-24 02:06 41.38427 28.76000 18226 ft 383 kts 96°
2026-04-24 02:06 41.38042 28.79534 17733 ft 381 kts 96°
2026-04-24 02:06 41.37666 28.82989 17265 ft 379 kts 96°
2026-04-24 02:06 41.37292 28.86409 16823 ft 376 kts 96°
2026-04-24 02:07 41.36912 28.89862 16361 ft 374 kts 96°
2026-04-24 02:07 41.36540 28.93255 15897 ft 371 kts 96°
2026-04-24 02:07 41.36168 28.96623 15433 ft 369 kts 96°
2026-04-24 02:07 41.35793 29.00007 14968 ft 367 kts 96°
2026-04-24 02:08 41.35425 29.03317 14504 ft 365 kts 96°
2026-04-24 02:08 41.35054 29.06654 14038 ft 363 kts 96°
2026-04-24 02:08 41.34685 29.09968 13587 ft 361 kts 96°
2026-04-24 02:08 41.34315 29.13274 13118 ft 359 kts 96°
2026-04-24 02:09 41.33949 29.16536 12646 ft 358 kts 96°
2026-04-24 02:09 41.33584 29.19782 12208 ft 355 kts 96°
2026-04-24 02:09 41.33220 29.23007 11752 ft 353 kts 96°
2026-04-24 02:09 41.32858 29.26218 11288 ft 351 kts 97°
2026-04-24 02:10 41.32498 29.29402 10842 ft 348 kts 96°
2026-04-24 02:10 41.32138 29.32564 10502 ft 342 kts 96°
2026-04-24 02:10 41.31791 29.35600 10319 ft 330 kts 97°
2026-04-24 02:10 41.31451 29.38565 10194 ft 317 kts 96°
2026-04-24 02:11 41.31233 29.40467 10106 ft 309 kts 96°
2026-04-24 02:11 41.30359 29.43990 9792 ft 302 kts 125°
2026-04-24 02:11 41.28841 29.45856 9423 ft 299 kts 144°
2026-04-24 02:11 41.27134 29.47432 9076 ft 297 kts 144°
2026-04-24 02:12 41.25446 29.48995 8726 ft 294 kts 144°
2026-04-24 02:12 41.23793 29.50546 8386 ft 291 kts 143°
2026-04-24 02:12 41.22147 29.52109 8044 ft 288 kts 143°
2026-04-24 02:12 41.20544 29.53643 7716 ft 286 kts 142°
2026-04-24 02:13 41.18947 29.55176 7367 ft 283 kts 142°
2026-04-24 02:13 41.17353 29.56708 7034 ft 280 kts 142°
2026-04-24 02:13 41.15788 29.58210 6712 ft 278 kts 142°
2026-04-24 02:13 41.14222 29.59718 6384 ft 275 kts 142°
2026-04-24 02:14 41.12700 29.61184 6067 ft 273 kts 142°
2026-04-24 02:14 41.11163 29.62664 5739 ft 271 kts 142°
2026-04-24 02:14 41.09645 29.64119 5421 ft 268 kts 143°
2026-04-24 02:14 41.08149 29.65554 5184 ft 262 kts 143°
2026-04-24 02:15 41.06694 29.66946 5106 ft 250 kts 144°
2026-04-24 02:15 41.05180 29.67943 4962 ft 246 kts 173°
2026-04-24 02:15 41.03515 29.67610 4884 ft 245 kts 210°
2026-04-24 02:15 41.02333 29.66051 4474 ft 242 kts 245°
2026-04-24 02:16 41.01714 29.64022 4154 ft 239 kts 250°
2026-04-24 02:16 41.01126 29.61950 3840 ft 237 kts 251°
2026-04-24 02:16 41.00514 29.59953 3543 ft 235 kts 248°
2026-04-24 02:16 40.99863 29.58033 3469 ft 222 kts 246°
2026-04-24 02:17 40.99213 29.56222 3477 ft 221 kts 246°
2026-04-24 02:17 40.98523 29.54348 3482 ft 226 kts 245°
2026-04-24 02:17 40.97834 29.52495 3480 ft 226 kts 245°
2026-04-24 02:17 40.97151 29.50663 3471 ft 218 kts 245°
2026-04-24 02:18 40.96487 29.48878 3412 ft 217 kts 245°
2026-04-24 02:18 40.95821 29.47084 3147 ft 217 kts 245°
2026-04-24 02:18 40.95164 29.45310 2845 ft 207 kts 245°
2026-04-24 02:18 40.94557 29.43670 2562 ft 193 kts 245°
2026-04-24 02:19 40.93984 29.42116 2222 ft 184 kts 245°
2026-04-24 02:19 40.93446 29.40658 1948 ft 171 kts 244°
2026-04-24 02:19 40.92943 29.39297 1663 ft 158 kts 244°
2026-04-24 02:19 40.92482 29.38045 1399 ft 144 kts 244°
2026-04-24 02:20 40.92052 29.36881 1189 ft 139 kts 244°
2026-04-24 02:20 40.91633 29.35745 987 ft 139 kts 244°
2026-04-24 02:20 40.91206 29.34592 759 ft 138 kts 244°
2026-04-24 02:20 40.90788 29.33454 541 ft 138 kts 244°
2026-04-24 02:21 40.90371 29.32323 339 ft 137 kts 244°
2026-04-24 02:21 40.89992 29.31294 321 ft 101 kts 244°
2026-04-24 02:21 40.89824 29.30815 321 ft 29 kts 254°
2026-04-24 02:21 40.89813 29.30595 321 ft 20 kts 273°
2026-04-24 02:22 40.89819 29.30491 321 ft 4 kts 276°
2026-04-24 02:22 40.89825 29.30449 321 ft 4 kts 292°
2026-04-24 02:22 40.89862 29.30436 321 ft 9 kts
2026-04-24 02:22 40.89918 29.30521 321 ft 13 kts 64°
2026-04-24 02:23 40.89964 29.30647 321 ft 17 kts 64°
2026-04-24 02:23 40.90023 29.30812 321 ft 21 kts 64°
2026-04-24 02:23 40.90099 29.31013 321 ft 30 kts 63°
2026-04-24 02:23 40.90185 29.31242 321 ft 25 kts 64°
2026-04-24 02:24 40.90234 29.31380 321 ft 25 kts 64°
2026-04-24 02:24 40.90302 29.31505 321 ft 8 kts
2026-04-24 02:24 40.90356 29.31476 321 ft 9 kts 334°
2026-04-24 02:24 40.90416 29.31437 321 ft 10 kts 333°
2026-04-24 02:25 40.90483 29.31405 321 ft 10 kts 338°
2026-04-24 02:25 40.90519 29.31381 321 ft 5 kts 333°
2026-04-24 02:25 40.90528 29.31375 321 ft 0 kts 333°